Regional Weather Roundup
Issued by NWS Sioux Falls, SD

Home | Current Version | Previous Version | Graphics & Text | Print | Product List | Glossary Off
Versions: 1 2 3 4 5 6 7 8 9 10 11 12 13 14 15 16 17 18 19 20 21 22 23 24 25 26 27 28 29 30 31 32 33 34 35 36 37 38 39 40 41 42 43 44 45 46 47 48 49 50

000
ASUS43 KFSD 292302
RWRFSD

WEATHER ROUNDUP FOR SE SOUTH DAKOTA/SW MINNESOTA/NW IOWA
NATIONAL WEATHER SERVICE SIOUX FALLS SD
600 PM CDT FRI MAY 29 2015

NOTE: "FAIR" INDICATES FEW OR NO CLOUDS BELOW 12,000 FEET WITH NO
SIGNIFICANT WEATHER AND OR OBSTRUCTIONS TO VISIBILITY.


SDZ038>040-050-052>070-300000-
SOUTHEAST SOUTH DAKOTA

CITY           SKY/WX    TMP DP  RH WIND       PRES   REMARKS
BROOKINGS      CLOUDY    50  45  81 N23       30.07R
CHAMBERLAIN    CLOUDY    52  44  76 N15G29    30.17S
HURON          CLOUDY    52  44  74 N23       30.14R
MADISON        CLOUDY    50  50 100 N20G29    30.07R
MITCHELL       LGT RAIN  52  47  83 N26G35    30.12R
SIOUX FALLS    CLOUDY    51  48  89 N22G28    30.03R
WINNER         CLOUDY    52  44  74 N17       30.20R
YANKTON        CLOUDY    54  48  82 N23G29    30.03R
$$

MNZ071-072-080-081-089-090-097-098-300000-
SOUTHWEST MINNESOTA

CITY           SKY/WX    TMP DP  RH WIND       PRES   REMARKS
FAIRMONT       CLOUDY    63  57  82 NW13      29.91R
JACKSON        CLOUDY    55  55 100 N22G32    29.95S
LUVERNE        CLOUDY    54  48  82 N12G24    30.01R
MARSHALL       CLOUDY    48  43  81 N24G32    30.02S
MONTEVIDEO     DRIZZLE   52  50  93 N17G24    30.04S
PIPESTONE      CLOUDY    48  46  93 N17G25    30.03R
REDWOOD FALLS  LGT RAIN  56  53  90 N14G23    29.97S
TRACY          HVY RAIN  50  49  96 NW18G29   30.02R
WINDOM         CLOUDY    55  54  94 NW22G31   29.96R FOG
WORTHINGTON    CLOUDY    54  46  76 N28G33    29.99R
$$

IAZ001>003-012>014-020>022-031-032-NEZ013-014-SDZ071-300000-
NORTHWEST IOWA

CITY           SKY/WX    TMP DP  RH WIND       PRES   REMARKS
DENISON        CLOUDY    75  66  73 SW8G18    29.86S
ESTHERVILLE    CLOUDY    60  58  92 N18       29.91S
SIOUX CITY     LGT RAIN  62  58  86 N20       29.94R
SPENCER        CLOUDY    60  55  83 N23G31    29.94R
$$

ABBREVIATIONS USED IN REMARKS
   TC - TEMPERATURE IN CELSIUS
  WCI - WIND CHILL INDEX
   HX - HEAT INDEX
  VSB - VISIBILITY




USA.gov is the U.S. government's official web portal to all federal, state and local government web resources and services.